| time (UTC) | temp F | wind direction | speed MPH | gust MPH | rain 1hr in | rain 24hr in | rain mn in | humidity % | barometer mb |
| 20260507074529 | 53 | 315 | 1.0 | 4.0 | 0.00 | 0.00 | 0.00 | 49 | 1013.3 |
| 20260507073027 | 50 | 72 | 1.0 | 6.0 | 0.00 | 0.00 | 0.00 | 50 | 1013.3 |
| 20260507071531 | 51 | 70 | 0.0 | 3.0 | 0.00 | 0.00 | 0.00 | 51 | 1013.2 |
| 20260507070020 | 49 | 19 | 1.0 | 5.0 | 0.00 | 0.00 | 0.00 | 54 | 1013.2 |
| 20260507064533 | 49 | 63 | 3.0 | 6.0 | 0.00 | 0.00 | 0.00 | 55 | 1013.1 |
| 20260507063019 | 48 | 43 | 1.0 | 6.0 | 0.00 | 0.00 | 0.00 | 57 | 1013.0 |
| 20260507061515 | 47 | 40 | 2.0 | 5.0 | 0.00 | 0.00 | 0.00 | 59 | 1012.9 |
| 20260507060012 | 46 | 350 | 2.0 | 5.0 | 0.00 | 0.00 | 0.00 | 59 | 1012.8 |
| 20260507054510 | 46 | 53 | 3.0 | 6.0 | 0.00 | 0.00 | 0.00 | 60 | 1012.7 |
| 20260507053008 | 45 | 37 | 3.0 | 7.0 | 0.00 | 0.00 | 0.00 | 60 | 1012.7 |
| 20260507051505 | 45 | 34 | 3.0 | 7.0 | 0.00 | 0.00 | 0.00 | 59 | 1012.6 |
| 20260507050010 | 44 | 344 | 1.0 | 5.0 | 0.00 | 0.00 | 0.00 | 60 | 1012.7 |
| 20260507044600 | 43 | 13 | 1.0 | 3.0 | 0.00 | 0.00 | 0.00 | 60 | 1012.7 |
| 20260507043057 | 42 | 33 | 0.0 | 4.0 | 0.00 | 0.00 | 0.00 | 61 | 1012.6 |
| 20260507041552 | 40 | 296 | 2.0 | 5.0 | 0.00 | 0.00 | 0.00 | 64 | 1012.5 |
| 20260507040048 | 39 | 318 | 1.0 | 4.0 | 0.00 | 0.00 | 0.00 | 66 | 1012.4 |
| 20260507034546 | 38 | 324 | 2.0 | 4.0 | 0.00 | 0.00 | 0.00 | 70 | 1012.3 |
| 20260507033045 | 37 | 308 | 0.0 | 3.0 | 0.00 | 0.00 | 0.00 | 71 | 1012.2 |
| 20260507031545 | 37 | 321 | 1.0 | 3.0 | 0.00 | 0.00 | 0.00 | 71 | 1012.2 |
| 20260507030044 | 37 | 288 | 1.0 | 5.0 | 0.00 | 0.00 | 0.00 | 73 | 1012.1 |
| 20260507024543 | 37 | 314 | 0.0 | 3.0 | 0.00 | 0.00 | 0.00 | 74 | 1012.3 |
| 20260507023043 | 36 | 296 | 0.0 | 2.0 | 0.00 | 0.00 | 0.00 | 75 | 1012.4 |
| 20260507021543 | 36 | 313 | 0.0 | 1.0 | 0.00 | 0.00 | 0.00 | 75 | 1012.4 |
| 20260507020120 | 36 | 313 | 0.0 | 1.0 | 0.00 | 0.00 | 0.00 | 74 | 1012.4 |
| 20260507014544 | 36 | 317 | 0.0 | 2.0 | 0.00 | 0.00 | 0.00 | 71 | 1012.4 |
| 20260507013036 | 37 | 310 | 0.0 | 4.0 | 0.00 | 0.00 | 0.00 | 70 | 1012.3 |
| 20260507011539 | 38 | 276 | 1.0 | 5.0 | 0.00 | 0.00 | 0.00 | 69 | 1012.2 |
| 20260507010049 | 38 | 324 | 1.0 | 4.0 | 0.00 | 0.00 | 0.00 | 69 | 1012.1 |
| 20260507004535 | 38 | 286 | 1.0 | 5.0 | 0.00 | 0.00 | 0.00 | 69 | 1012.0 |
| 20260507003030 | 38 | 303 | 2.0 | 4.0 | 0.00 | 0.00 | 0.00 | 71 | 1012.0 |
| 20260507001530 | 37 | 270 | 0.0 | 5.0 | 0.00 | 0.00 | 0.00 | 72 | 1012.1 |
| 20260507000029 | 36 | 260 | 0.0 | 2.0 | 0.00 | 0.00 | 0.00 | 72 | 1012.1 |
| 20260506234530 | 36 | 301 | 0.0 | 1.0 | 0.00 | 0.00 | 0.00 | 71 | 1012.0 |
| 20260506233025 | 36 | 301 | 0.0 | 1.0 | 0.00 | 0.00 | 0.00 | 69 | 1012.0 |
| 20260506231522 | 37 | 301 | 0.0 | 1.0 | 0.00 | 0.00 | 0.00 | 67 | 1012.1 |
| 20260506230025 | 38 | 337 | 0.0 | 3.0 | 0.00 | 0.00 | 0.00 | 65 | 1012.1 |
| 20260506224518 | 38 | 309 | 0.0 | 3.0 | 0.00 | 0.00 | 0.00 | 65 | 1011.9 |
| 20260506223015 | 38 | 299 | 1.0 | 4.0 | 0.00 | 0.00 | 0.00 | 63 | 1012.0 |
| 20260506221512 | 38 | 310 | 0.0 | 3.0 | 0.00 | 0.00 | 0.00 | 63 | 1012.0 |
| 20260506220015 | 39 | 298 | 0.0 | 2.0 | 0.00 | 0.00 | 0.00 | 61 | 1011.9 |
| 20260506214509 | 40 | 296 | 0.0 | 3.0 | 0.00 | 0.00 | 0.00 | 59 | 1011.9 |
| 20260506213008 | 41 | 304 | 1.0 | 4.0 | 0.00 | 0.00 | 0.00 | 57 | 1011.8 |
| 20260506211508 | 41 | 287 | 1.0 | 5.0 | 0.00 | 0.00 | 0.00 | 57 | 1011.7 |
| 20260506210008 | 42 | 293 | 0.0 | 4.0 | 0.00 | 0.00 | 0.00 | 55 | 1011.8 |
| 20260506204507 | 43 | 279 | 2.0 | 6.0 | 0.00 | 0.00 | 0.00 | 53 | 1011.7 |
| 20260506203006 | 43 | 304 | 2.0 | 8.0 | 0.00 | 0.00 | 0.00 | 53 | 1011.6 |
| 20260506201520 | 44 | 284 | 2.0 | 5.0 | 0.00 | 0.00 | 0.00 | 52 | 1011.7 |
| 20260506200005 | 44 | 317 | 2.0 | 6.0 | 0.00 | 0.00 | 0.00 | 51 | 1011.6 |
| 20260506194507 | 44 | 250 | 2.0 | 7.0 | 0.00 | 0.00 | 0.00 | 51 | 1011.6 |
| 20260506193004 | 44 | 270 | 2.0 | 8.0 | 0.00 | 0.00 | 0.00 | 50 | 1011.5 |
| 20260506191503 | 45 | 311 | 0.0 | 7.0 | 0.00 | 0.00 | 0.00 | 49 | 1011.4 |
| 20260506190004 | 46 | 259 | 2.0 | 10.0 | 0.00 | 0.00 | 0.00 | 47 | 1011.3 |
| 20260506184504 | 47 | 270 | 3.0 | 7.0 | 0.00 | 0.00 | 0.00 | 45 | 1011.3 |
| 20260506183001 | 48 | 296 | 1.0 | 7.0 | 0.00 | 0.00 | 0.00 | 44 | 1011.1 |
| 20260506181501 | 49 | 294 | 2.0 | 9.0 | 0.00 | 0.00 | 0.00 | 42 | 1010.9 |
| 20260506180100 | 49 | 230 | 3.0 | 10.0 | 0.00 | 0.00 | 0.00 | 40 | 1010.8 |
| 20260506174558 | 50 | 312 | 3.0 | 10.0 | 0.00 | 0.00 | 0.00 | 39 | 1010.7 |
| 20260506173100 | 50 | 268 | 4.0 | 11.0 | 0.00 | 0.00 | 0.00 | 36 | 1010.6 |
| 20260506171608 | 51 | 90 | 2.0 | 14.0 | 0.00 | 0.00 | 0.00 | 37 | 1010.6 |
| 20260506170100 | 52 | 306 | 6.0 | 11.0 | 0.00 | 0.00 | 0.00 | 35 | 1010.5 |
| 20260506164556 | 53 | 275 | 4.0 | 8.0 | 0.00 | 0.00 | 0.00 | 32 | 1010.4 |
| 20260506163106 | 53 | 301 | 3.0 | 9.0 | 0.00 | 0.00 | 0.00 | 33 | 1010.4 |
| 20260506161555 | 53 | 265 | 4.0 | 10.0 | 0.00 | 0.00 | 0.00 | 32 | 1010.4 |
| 20260506160107 | 53 | 287 | 4.0 | 12.0 | 0.00 | 0.00 | 0.00 | 31 | 1010.4 |
| 20260506154552 | 54 | 357 | 7.0 | 12.0 | 0.00 | 0.00 | 0.00 | 30 | 1010.3 |
| 20260506153051 | 55 | 251 | 4.0 | 8.0 | 0.00 | 0.00 | 0.00 | 30 | 1010.2 |
| 20260506151550 | 55 | 271 | 5.0 | 12.0 | 0.00 | 0.00 | 0.00 | 29 | 1010.3 |
| 20260506150053 | 55 | 275 | 5.0 | 11.0 | 0.00 | 0.00 | 0.00 | 29 | 1010.3 |
| 20260506144558 | 55 | 289 | 4.0 | 13.0 | 0.00 | 0.00 | 0.00 | 30 | 1010.3 |
| 20260506143042 | 55 | 308 | 4.0 | 14.0 | 0.00 | 0.00 | 0.00 | 29 | 1010.3 |
| 20260506141540 | 56 | 266 | 4.0 | 10.0 | 0.00 | 0.00 | 0.00 | 30 | 1010.3 |
| 20260506140038 | 56 | 298 | 1.0 | 6.0 | 0.00 | 0.00 | 0.00 | 28 | 1010.4 |
| 20260506134536 | 57 | 310 | 3.0 | 8.0 | 0.00 | 0.00 | 0.00 | 25 | 1010.4 |
| 20260506133036 | 56 | 36 | 3.0 | 7.0 | 0.00 | 0.00 | 0.00 | 25 | 1010.4 |
| 20260506131541 | 55 | 74 | 5.0 | 9.0 | 0.00 | 0.00 | 0.00 | 25 | 1010.5 |
| 20260506130030 | 56 | 5 | 5.0 | 10.0 | 0.00 | 0.00 | 0.00 | 25 | 1010.6 |
| 20260506124533 | 56 | 282 | 3.0 | 7.0 | 0.00 | 0.00 | 0.00 | 27 | 1010.7 |
| 20260506123027 | 57 | 5 | 1.0 | 8.0 | 0.00 | 0.00 | 0.00 | 25 | 1010.8 |
| 20260506121525 | 57 | 14 | 2.0 | 10.0 | 0.00 | 0.00 | 0.00 | 24 | 1010.9 |
| 20260506120104 | 57 | 229 | 2.0 | 6.0 | 0.00 | 0.00 | 0.00 | 27 | 1011.0 |
| 20260506114559 | 56 | 49 | 3.0 | 8.0 | 0.00 | 0.00 | 0.00 | 25 | 1011.2 |
| 20260506113056 | 55 | 268 | 2.0 | 8.0 | 0.00 | 0.00 | 0.00 | 26 | 1011.2 |
| 20260506111555 | 54 | 232 | 4.0 | 11.0 | 0.00 | 0.00 | 0.00 | 27 | 1011.1 |
| 20260506110053 | 54 | 279 | 2.0 | 9.0 | 0.00 | 0.00 | 0.00 | 27 | 1011.2 |
| 20260506104558 | 55 | 246 | 3.0 | 9.0 | 0.00 | 0.00 | 0.00 | 25 | 1011.3 |
| 20260506103053 | 54 | 7 | 0.0 | 6.0 | 0.00 | 0.00 | 0.00 | 26 | 1011.4 |
| 20260506101549 | 53 | 270 | 3.0 | 9.0 | 0.00 | 0.00 | 0.00 | 26 | 1011.7 |
| 20260506100103 | 53 | 249 | 3.0 | 9.0 | 0.00 | 0.00 | 0.00 | 25 | 1011.9 |
| 20260506094546 | 54 | 248 | 0.0 | 8.0 | 0.00 | 0.00 | 0.00 | 27 | 1011.8 |
| 20260506093046 | 54 | 73 | 3.0 | 7.0 | 0.00 | 0.00 | 0.00 | 26 | 1011.9 |
| 20260506091547 | 53 | 52 | 0.0 | 5.0 | 0.00 | 0.00 | 0.00 | 27 | 1012.0 |
| 20260506090041 | 53 | 310 | 1.0 | 4.0 | 0.00 | 0.00 | 0.00 | 27 | 1012.2 |
| 20260506084542 | 52 | 234 | 2.0 | 6.0 | 0.00 | 0.00 | 0.00 | 28 | 1012.2 |
| 20260506083039 | 52 | 182 | 3.0 | 5.0 | 0.00 | 0.00 | 0.00 | 27 | 1012.4 |
| 20260506081541 | 52 | 270 | 1.0 | 4.0 | 0.00 | 0.00 | 0.00 | 30 | 1012.4 |